When you browse on this site, cookies collect data to enhance your experience and personalize the content and advertising you see.
Visit our Privacy Policy to learn more. By continuing to use the site, you agree to this use of cookies and data.
  • In Czech Republic
  • List of Countries
  • For 7 days
  • Water Temperature
  • Satellite Maps
  • Weather Map
  • Weather Widgets
  • user-avatar
    Login

    Hourly Weather Luanda

    Today, 15 December, Saturday

    Time Temperature Precipitation Wind Pressure Humidity
    00:00 +27°C° 0 mm 2 mps 755 mmHg 80%
    01:00 +27°C° 0 mm 2 mps 755 mmHg 81%
    02:00 +27°C° 0 mm 2 mps 755 mmHg 81%
    03:00 +27°C° 0 mm 2 mps 755 mmHg 81%
    04:00 +27°C° 0 mm 2 mps 755 mmHg 81%
    05:00 +27°C° 0.1 mm 2 mps 755 mmHg 81%
    06:00 +27°C° 0.1 mm 2 mps 756 mmHg 80%
    07:00 +27°C° 0.1 mm 2 mps 756 mmHg 79%
    08:00 +28°C° 0.1 mm 2 mps 756 mmHg 73%
    09:00 +30°C° 0.1 mm 1 mps 756 mmHg 68%
    10:00 +31°C° 0.1 mm 1 mps 756 mmHg 62%
    11:00 +32°C° 0 mm 2 mps 756 mmHg 57%
    12:00 +35°C° 0 mm 2 mps 755 mmHg 51%
    13:00 +36°C° 0 mm 3 mps 754 mmHg 46%
    14:00 +35°C° 0 mm 3 mps 754 mmHg 49%
    15:00 +34°C° 0 mm 4 mps 754 mmHg 53%
    16:00 +33°C° 0 mm 4 mps 753 mmHg 57%
    17:00 +32°C° 0 mm 4 mps 754 mmHg 62%
    18:00 +29°C° 0 mm 4 mps 754 mmHg 68%
    19:00 +28°C° 0 mm 4 mps 754 mmHg 74%
    20:00 +28°C° 0 mm 3 mps 755 mmHg 75%
    21:00 +28°C° 0 mm 3 mps 756 mmHg 77%
    22:00 +27°C° 0 mm 2 mps 756 mmHg 78%
    23:00 +27°C° 0 mm 2 mps 756 mmHg 79%

    Tomorrow, 16 December, Sunday

    Time Temperature Precipitation Wind Pressure Humidity
    00:00 +27°C° 0 mm 2 mps 756 mmHg 80%
    01:00 +27°C° 0 mm 1 mps 755 mmHg 81%
    02:00 +27°C° 0 mm 1 mps 755 mmHg 81%
    03:00 +27°C° 0 mm 1 mps 755 mmHg 82%
    04:00 +27°C° 0 mm 1 mps 754 mmHg 82%
    05:00 +27°C° 0 mm 1 mps 755 mmHg 82%
    06:00 +27°C° 0 mm 1 mps 755 mmHg 83%
    07:00 +27°C° 0 mm 1 mps 755 mmHg 83%
    08:00 +27°C° 0.1 mm 1 mps 756 mmHg 80%
    09:00 +28°C° 0.1 mm 1 mps 756 mmHg 77%
    10:00 +26°C° 0.1 mm 0 mps 756 mmHg 73%
    11:00 +30°C° 0 mm 1 mps 755 mmHg 64%
    12:00 +32°C° 0 mm 2 mps 755 mmHg 54%
    13:00 +35°C° 0 mm 2 mps 754 mmHg 44%
    14:00 +35°C° 0 mm 3 mps 753 mmHg 45%
    15:00 +34°C° 0 mm 3 mps 753 mmHg 45%
    16:00 +34°C° 0 mm 4 mps 752 mmHg 45%
    17:00 +31°C° 0 mm 3 mps 753 mmHg 54%
    18:00 +30°C° 0 mm 3 mps 753 mmHg 62%
    19:00 +28°C° 0 mm 3 mps 754 mmHg 71%
    20:00 +27°C° 0 mm 3 mps 755 mmHg 74%
    21:00 +27°C° 0 mm 3 mps 755 mmHg 77%
    22:00 +27°C° 0 mm 3 mps 756 mmHg 80%
    23:00 +27°C° 0 mm 3 mps 755 mmHg 81%

    Day after tomorrow, 17 December, Monday

    Time Temperature Precipitation Wind Pressure Humidity
    00:00 +27°C° 0 mm 2 mps 755 mmHg 82%
    01:00 +27°C° 0 mm 2 mps 755 mmHg 83%
    02:00 +26°C° 0 mm 2 mps 755 mmHg 84%
    03:00 +26°C° 0 mm 2 mps 754 mmHg 84%
    04:00 +26°C° 0 mm 1 mps 754 mmHg 85%
    05:00 +27°C° 0 mm 1 mps 755 mmHg 84%
    06:00 +27°C° 0 mm 1 mps 755 mmHg 82%
    07:00 +25°C° 0 mm 0 mps 755 mmHg 81%
    08:00 +26°C° 0 mm 0 mps 756 mmHg 75%
    09:00 +27°C° 0 mm 0 mps 756 mmHg 69%
    10:00 +28°C° 0 mm 0 mps 756 mmHg 64%
    11:00 +31°C° 0 mm 1 mps 755 mmHg 59%
    12:00 +32°C° 0 mm 2 mps 754 mmHg 55%
    13:00 +34°C° 0 mm 2 mps 753 mmHg 51%
    14:00 +34°C° 0 mm 3 mps 753 mmHg 52%
    15:00 +34°C° 0 mm 3 mps 752 mmHg 53%
    16:00 +33°C° 0 mm 4 mps 752 mmHg 54%
    17:00 +31°C° 0 mm 3 mps 752 mmHg 60%
    18:00 +29°C° 0 mm 3 mps 753 mmHg 67%
    19:00 +28°C° 0 mm 2 mps 753 mmHg 73%
    20:00 +28°C° 0 mm 2 mps 754 mmHg 75%
    21:00 +27°C° 0 mm 2 mps 754 mmHg 77%
    22:00 +27°C° 0 mm 1 mps 755 mmHg 78%
    23:00 +27°C° 0 mm 1 mps 755 mmHg 79%

    18 December, Tuesday

    Time Temperature Precipitation Wind Pressure Humidity
    00:00 +27°C° 0 mm 1 mps 754 mmHg 80%
    01:00 +26°C° 0 mm 1 mps 754 mmHg 81%
    02:00 +26°C° 0 mm 1 mps 754 mmHg 82%
    03:00 +26°C° 0 mm 2 mps 753 mmHg 82%
    04:00 +26°C° 0 mm 2 mps 753 mmHg 83%
    05:00 +26°C° 0 mm 2 mps 754 mmHg 82%
    06:00 +26°C° 0 mm 3 mps 754 mmHg 80%
    07:00 +27°C° 0 mm 3 mps 755 mmHg 79%
    08:00 +28°C° 0 mm 2 mps 755 mmHg 71%
    09:00 +30°C° 0 mm 2 mps 755 mmHg 63%
    10:00 +32°C° 0 mm 1 mps 755 mmHg 55%
    11:00 +35°C° 0 mm 2 mps 754 mmHg 51%
    12:00 +36°C° 0 mm 2 mps 754 mmHg 46%
    13:00 +37°C° 0 mm 3 mps 753 mmHg 42%
    14:00 +36°C° 0 mm 3 mps 753 mmHg 47%
    15:00 +35°C° 0 mm 4 mps 752 mmHg 51%
    16:00 +34°C° 0 mm 5 mps 752 mmHg 56%
    17:00 +32°C° 0 mm 4 mps 753 mmHg 62%
    18:00 +30°C° 0 mm 4 mps 753 mmHg 68%
    19:00 +29°C° 0 mm 3 mps 753 mmHg 74%
    20:00 +28°C° 0 mm 3 mps 754 mmHg 75%
    21:00 +28°C° 0 mm 3 mps 755 mmHg 77%
    22:00 +28°C° 0 mm 2 mps 755 mmHg 79%
    23:00 +28°C° 0 mm 2 mps 755 mmHg 80%

    19 December, Wednesday

    Time Temperature Precipitation Wind Pressure Humidity
    00:00 +28°C° 0 mm 2 mps 755 mmHg 82%
    01:00 +27°C° 0 mm 2 mps 754 mmHg 83%
    02:00 +27°C° 0.1 mm 2 mps 754 mmHg 84%
    03:00 +27°C° 0.1 mm 2 mps 754 mmHg 86%
    04:00 +27°C° 0.1 mm 2 mps 754 mmHg 87%
    05:00 +27°C° 0.1 mm 2 mps 754 mmHg 86%
    06:00 +27°C° 0.1 mm 2 mps 755 mmHg 86%
    07:00 +27°C° 0.1 mm 2 mps 755 mmHg 85%
    08:00 +28°C° 0.1 mm 2 mps 755 mmHg 80%
    09:00 +29°C° 0.1 mm 1 mps 755 mmHg 75%
    10:00 +30°C° 0.1 mm 1 mps 755 mmHg 71%
    11:00 +31°C° 0 mm 1 mps 755 mmHg 67%
    12:00 +31°C° 0 mm 2 mps 754 mmHg 64%
    13:00 +32°C° 0 mm 2 mps 753 mmHg 61%
    14:00 +33°C° 0 mm 3 mps 753 mmHg 62%
    15:00 +33°C° 0 mm 3 mps 752 mmHg 63%
    16:00 +32°C° 0 mm 4 mps 752 mmHg 64%
    17:00 +30°C° 0 mm 4 mps 752 mmHg 68%
    18:00 +29°C° 0 mm 3 mps 753 mmHg 73%
    19:00 +28°C° 0 mm 3 mps 753 mmHg 78%
    20:00 +27°C° 0 mm 3 mps 754 mmHg 79%
    21:00 +27°C° 0 mm 3 mps 754 mmHg 81%
    22:00 +27°C° 0 mm 3 mps 755 mmHg 82%
    23:00 +27°C° 0 mm 3 mps 754 mmHg 82%

    20 December, Thursday

    Time Temperature Precipitation Wind Pressure Humidity
    00:00 +27°C° 0 mm 3 mps 754 mmHg 82%
    01:00 +27°C° 0 mm 3 mps 754 mmHg 82%
    02:00 +26°C° 0 mm 2 mps 754 mmHg 83%
    03:00 +26°C° 0 mm 2 mps 754 mmHg 85%
    04:00 +26°C° 0 mm 2 mps 753 mmHg 86%
    05:00 +26°C° 0 mm 2 mps 754 mmHg 84%
    06:00 +27°C° 0 mm 1 mps 754 mmHg 83%
    07:00 +27°C° 0 mm 1 mps 755 mmHg 81%
    08:00 +28°C° 0 mm 1 mps 755 mmHg 75%
    09:00 +29°C° 0 mm 1 mps 755 mmHg 69%
    10:00 +30°C° 0 mm 1 mps 755 mmHg 63%
    11:00 +31°C° 0 mm 1 mps 755 mmHg 60%
    12:00 +32°C° 0 mm 2 mps 754 mmHg 57%
    13:00 +32°C° 0 mm 2 mps 753 mmHg 54%
    14:00 +33°C° 0 mm 3 mps 753 mmHg 54%
    15:00 +33°C° 0 mm 3 mps 752 mmHg 53%
    16:00 +34°C° 0 mm 4 mps 752 mmHg 53%
    17:00 +32°C° 0 mm 4 mps 752 mmHg 60%
    18:00 +29°C° 0 mm 3 mps 753 mmHg 67%
    19:00 +28°C° 0 mm 3 mps 753 mmHg 75%
    20:00 +27°C° 0 mm 3 mps 754 mmHg 77%
    21:00 +27°C° 0 mm 3 mps 754 mmHg 79%
    22:00 +26°C° 0 mm 3 mps 755 mmHg 82%
    23:00 +26°C° 0 mm 2 mps 754 mmHg 83%
    Show more